STARLINK-36971, 68165

Orbit data source: Space-Track

STARLINK-36971, 68165 is a payload satellite owned by SpaceX/Seattle (US) in SSO that was launched on Fri, 13 Mar 2026 UTC via an FALCON 9 launch vehicle from the Air Force Western Test Range (AFWTR). Payload-class satellites include a variety of spacecraft equipped with specific instruments for various scientific and technological missions. These include communications satellites like Starlink; space stations such as the ISS; scientific satellites like the Hubble; Earth observation satellites from companies like Planet Labs, Umbra, and HawkEye 360; GPS; miniature CubeSats for education and research; and military/defense satellites.

Loading next visibility...
Identifier
68165, 2026-049Z
Orbit
SSO
Country
Flag of USUS
Related business
Manufacturer
SpaceX/Seattle
Mission
Operational spacecraft
Bus & Motor
STARLINK V2MO, Unknown motor
Mass
575 kg wet, ~530 kg dry
Launch date (UTC)
2026-03-13 (3 months ago)
Launch vehicle
FALCON 9
Launch site
Air Force Western Test Range (AFWTR)
Object type
Payload
Rocket body
Debris
Shape & HBR
Unknown shape, 17.7 m
Radar Cross Section
Large (>1 m²)

Expand to show TLE details & history
Last TLE update: 20 hours ago

TLE from 20 hours ago
0 STARLINK-36971
1 68165U 26049Z   26171.02855979  .00013933  00000-0  43292-3 0  9991
2 68165  97.2841 192.3613 0001534  92.1120 268.0299 15.33458255 15331
Epoch: 2026-06-20T00:41Z
TLE epoch observation values (Epoch: 2026-06-20T00:41:07.565Z)
Latitude
0.00001°
Longitude
-86.16928°
Altitude
468.652 km
Speed
7.632 km/s
True Right ascension
12h 49m 26s
True Declination
0° 00' 00"
Sunlit
Object was in daylight at epoch
Visualization orbit readout
Latitude
Unknown
Longitude
Unknown
Altitude
Unknown
Speed
Unknown
Apparent Right ascension
Unknown
Apparent Declination
Unknown
Sunlit
N/A
Visualization observer readout
Local Sidereal Time
07:15:23
Azimuth
Unknown
Elevation
Unknown
Doppler factor
Unknown
Orbital elements
Apogee altitude
463.496 km
Perigee altitude
461.397 km
Semi-major axis
6,840.583 km
Eccentricity
0.00015
Inclination
97.2841°
RAAN
192.3613°
Arg. of periapsis
92.112°
True anomaly
268.01233°
Mean anomaly
268.0299°
Eccentric anomaly
268.02112°
Mean motion
3.83622 °/min
Orbital period
93.84 mins
BSTAR
0.00043292
Loading maneuver chart data...
Computing Atmospheric mass density...
Loading historical data...
Loading historical data...
Loading historical data...
Loading historical data...
Loading historical data...
Loading historical data...
Loading historical data...

Documentation

Showing up to 5 results
|